Weather History for Fort Leonard Wood, MO

Change the Weather History Date:

Saturday, November 26, 2011

  Actual Average Record
Temperature  
Mean Temperature 50 °F -  
Max Temperature 60 °F 51 °F 69 °F (1998)
Min Temperature 38 °F 36 °F 15 °F (1996)
Degree Days  
Heating Degree Days 16    
Moisture  
Dew Point 49 °F    
Average Humidity 96    
Maximum Humidity 100    
Minimum Humidity 82    
Precipitation  
Precipitation 0.38 in - - ()
Sea Level Pressure  
Sea Level Pressure 29.88 in    
Wind  
Wind Speed 13 mph (West)    
Max Wind Speed 18 mph    
Max Gust Speed 26 mph    
Visibility 9 miles    
Events Rain    
Averages and records for this station are not official NWS values.
T = Trace of Precipitation, MM = Missing Value Source: NWS Daily Summary

Daily Weather History Graph

Daily Weather History Graph

Search for Another Location

Airport:

Trip Planner

Search our weather history database for the weather conditions in past years. The results will help you decide how hot, cold, wet, or windy it might be!

Date:

Astronomy

Nov. 26, 2011 Rise Set
Actual Time 6:59 AM CST 4:51 PM CST
Civil Twilight 6:31 AM CST 5:20 PM CST
Nautical Twilight 5:59 AM CST 5:52 PM CST
Astronomical Twilight 5:27 AM CST 6:23 PM CST
Moon 8:30 AM CST (11/26) 6:24 PM CST (11/26)
Length of Visible Light 10h 48m
Length of Day
9h 51m
Waxing Crescent, 3% of the Moon is Illuminated
Nov 26
Waxing Crescent
Dec 2
First Quarter
Dec 10
Full
Dec 17
Last Quarter
Dec 24
New

Hourly Weather History & Observations

Time (CST) Temp. Windchill Dew Point Humidity Pressure Visibility Wind Dir Wind Speed Gust Speed Precip Events Conditions
12:55 AM 53.8 °F - 48.7 °F 83% 29.88 in 10.0 mi SSE 11.5 mph - N/A   Mostly Cloudy
1:55 AM 55.4 °F - 50.4 °F 83% 29.87 in 10.0 mi South 15.0 mph 18.4 mph N/A   Overcast
2:55 AM 56.8 °F - 51.4 °F 82% 29.86 in 10.0 mi South 10.4 mph 18.4 mph N/A   Overcast
3:55 AM 57.7 °F - 52.7 °F 83% 29.83 in 10.0 mi South 13.8 mph 21.9 mph N/A   Overcast
4:55 AM 57.6 °F - 53.2 °F 85% 29.84 in 10.0 mi South 16.1 mph 24.2 mph N/A   Overcast
5:55 AM 58.3 °F - 53.8 °F 85% 29.84 in 10.0 mi South 11.5 mph 19.6 mph N/A   Overcast
6:55 AM 57.7 °F - 54.9 °F 90% 29.83 in 10.0 mi South 15.0 mph 19.6 mph N/A   Overcast
7:26 AM 59.0 °F - 55.4 °F 88% 29.83 in 10.0 mi South 13.8 mph 19.6 mph N/A   Overcast
7:29 AM 59.0 °F - 55.4 °F 88% 29.83 in 10.0 mi South 13.8 mph 20.7 mph N/A   Overcast
7:31 AM 59.0 °F - 55.4 °F 88% 29.82 in 10.0 mi South 15.0 mph 20.7 mph N/A   Overcast
7:33 AM 59.0 °F - 55.4 °F 88% 29.82 in 10.0 mi SSE 13.8 mph 20.7 mph N/A   Overcast
7:39 AM 59.0 °F - 55.4 °F 88% 29.82 in 10.0 mi SSE 16.1 mph 25.3 mph N/A   Overcast
7:45 AM 59.0 °F - 55.4 °F 88% 29.82 in 10.0 mi South 11.5 mph 25.3 mph N/A   Overcast
7:53 AM 59.0 °F - 55.4 °F 88% 29.82 in 10.0 mi South 17.3 mph 23.0 mph N/A   Overcast
7:55 AM 58.6 °F - 55.6 °F 90% 29.82 in 10.0 mi SSE 16.1 mph 23.0 mph N/A   Overcast
8:55 AM 60.1 °F - 56.1 °F 87% 29.82 in 10.0 mi SSE 16.1 mph 26.5 mph N/A   Overcast
8:57 AM 60.8 °F - 57.2 °F 88% 29.82 in 10.0 mi South 15.0 mph 26.5 mph N/A Rain Light Rain
9:05 AM 59.0 °F - 57.2 °F 94% 29.82 in 10.0 mi South 16.1 mph 26.5 mph N/A   Overcast
9:19 AM 60.8 °F - 57.2 °F 88% 29.83 in 10.0 mi South 12.7 mph 23.0 mph N/A Rain Light Rain
9:55 AM 58.6 °F - 57.9 °F 97% 29.84 in 6.0 mi South 11.5 mph 23.0 mph 0.02 in Rain Light Rain
10:19 AM 59.0 °F - 57.2 °F 94% 29.85 in 9.0 mi South 12.7 mph 21.9 mph N/A   Overcast
10:21 AM 59.0 °F - 57.2 °F 94% 29.85 in 9.0 mi South 11.5 mph 21.9 mph N/A Rain Light Rain
10:23 AM 59.0 °F - 57.2 °F 94% 29.85 in 9.0 mi South 9.2 mph 21.9 mph N/A Rain Light Rain
10:55 AM 58.8 °F - 58.6 °F 99% 29.83 in 10.0 mi South 13.8 mph 20.7 mph 0.06 in Rain Light Rain
11:55 AM 59.0 °F - 59.0 °F 100% 29.80 in 10.0 mi South 10.4 mph - 0.05 in Rain Light Rain
12:04 PM 59.0 °F - 59.0 °F 100% 29.80 in 10.0 mi South 11.5 mph 17.3 mph N/A Rain Light Rain
12:08 PM 59.0 °F - 59.0 °F 100% 29.80 in 10.0 mi South 12.7 mph 18.4 mph N/A Rain Light Rain
12:50 PM 59.0 °F - 59.0 °F 100% 29.79 in 10.0 mi SSW 6.9 mph - N/A Rain Light Rain
12:55 PM 59.2 °F - 59.2 °F 100% 29.78 in 9.0 mi South 9.2 mph - 0.03 in Rain Light Rain
1:05 PM 59.0 °F - 59.0 °F 100% 29.77 in 7.0 mi South 11.5 mph - N/A Rain Light Rain
1:20 PM 59.0 °F - 59.0 °F 100% 29.76 in 7.0 mi South 6.9 mph - N/A Rain Light Rain
1:22 PM 59.0 °F - 59.0 °F 100% 29.76 in 7.0 mi South 8.1 mph - N/A Rain Light Rain
1:36 PM 59.0 °F - 59.0 °F 100% 29.77 in 8.0 mi South 8.1 mph - N/A Rain Light Rain
1:55 PM 59.0 °F - 59.0 °F 100% 29.76 in 7.0 mi South 6.9 mph - 0.06 in Rain Light Rain
1:56 PM 59.0 °F - 59.0 °F 100% 29.76 in 7.0 mi South 6.9 mph - N/A Rain Light Rain
2:08 PM 59.0 °F - 59.0 °F 100% 29.76 in 10.0 mi South 5.8 mph - N/A   Light Drizzle
2:11 PM 59.0 °F - 59.0 °F 100% 29.77 in 10.0 mi South 6.9 mph - N/A   Overcast
2:31 PM 59.0 °F - 59.0 °F 100% 29.76 in 10.0 mi Variable 5.8 mph - N/A   Overcast
2:55 PM 58.5 °F - 58.5 °F 100% 29.78 in 10.0 mi Variable 6.9 mph - 0.00 in   Overcast
3:42 PM 57.2 °F - 57.2 °F 100% 29.79 in 10.0 mi NW 12.7 mph 19.6 mph N/A Rain Light Rain
3:46 PM 55.4 °F - 55.4 °F 100% 29.79 in 7.0 mi NW 15.0 mph 21.9 mph N/A Rain Light Rain
3:50 PM 53.6 °F - 53.6 °F 100% 29.80 in 5.0 mi NW 18.4 mph 23.0 mph N/A Rain Light Rain
3:52 PM 53.6 °F - 53.6 °F 100% 29.82 in 4.0 mi NW 13.8 mph 23.0 mph N/A Rain Light Rain
3:53 PM 53.6 °F - 51.8 °F 94% 29.82 in 4.0 mi NNW 13.8 mph 23.0 mph N/A Rain Light Rain
3:55 PM 52.5 °F - 52.2 °F 99% 29.82 in 3.0 mi NW 17.3 mph 24.2 mph 0.04 in Rain Rain
3:56 PM 51.8 °F - 51.8 °F 100% 29.82 in 3.0 mi NW 17.3 mph 26.5 mph N/A Rain Rain
3:57 PM 51.8 °F - 51.8 °F 100% 29.82 in 3.0 mi NW 18.4 mph 26.5 mph N/A Rain Rain
4:18 PM 48.2 °F - 46.4 °F 93% 29.86 in 6.0 mi NW 13.8 mph 24.2 mph N/A Rain Light Rain
4:27 PM 44.6 °F 36.9 °F 44.6 °F 100% 29.87 in 8.0 mi NW 18.4 mph 26.5 mph N/A Rain Light Rain
4:47 PM 42.8 °F 35.8 °F 42.8 °F 100% 29.88 in 10.0 mi NNW 13.8 mph 24.2 mph N/A Rain Light Rain
4:55 PM 43.5 °F 37.1 °F 43.3 °F 99% 29.88 in 10.0 mi NW 12.7 mph 23.0 mph 0.05 in   Light Drizzle
4:57 PM 42.8 °F 36.6 °F 42.8 °F 100% 29.89 in 10.0 mi NW 11.5 mph 23.0 mph N/A   Overcast
5:08 PM 42.8 °F 36.2 °F 42.8 °F 100% 29.91 in 10.0 mi NW 12.7 mph 26.5 mph N/A   Light Drizzle
5:21 PM 42.8 °F 34.8 °F 42.8 °F 100% 29.92 in 10.0 mi NW 17.3 mph 26.5 mph N/A Rain Light Rain
5:36 PM 41.0 °F 32.8 °F 41.0 °F 100% 29.92 in 10.0 mi NNW 16.1 mph 26.5 mph N/A   Light Drizzle
5:44 PM 41.0 °F 33.1 °F 41.0 °F 100% 29.92 in 10.0 mi NW 15.0 mph 26.5 mph N/A Rain Light Rain
5:51 PM 41.0 °F 34.3 °F 41.0 °F 100% 29.93 in 7.0 mi NNW 11.5 mph 20.7 mph N/A Rain Rain
5:55 PM 41.5 °F 35.0 °F 41.4 °F 99% 29.94 in 5.0 mi NW 11.5 mph 18.4 mph 0.03 in Rain Rain
6:17 PM 41.0 °F 33.5 °F 41.0 °F 100% 29.94 in 6.0 mi NW 13.8 mph 21.9 mph N/A   Overcast
6:44 PM 41.0 °F 34.7 °F 39.2 °F 93% 29.96 in 8.0 mi NW 10.4 mph 23.0 mph N/A Rain Light Rain
6:45 PM 41.0 °F 34.3 °F 39.2 °F 93% 29.96 in 8.0 mi NW 11.5 mph 21.9 mph N/A Rain Light Rain
6:55 PM 40.5 °F 32.8 °F 40.1 °F 99% 29.97 in 8.0 mi NW 13.8 mph 18.4 mph 0.02 in   Light Drizzle
7:11 PM 41.0 °F 33.9 °F 39.2 °F 93% 29.96 in 10.0 mi NW 12.7 mph - N/A   Light Drizzle
7:17 PM 41.0 °F 32.8 °F 39.2 °F 93% 29.97 in 10.0 mi NW 16.1 mph - N/A   Overcast
7:18 PM 41.0 °F 33.1 °F 39.2 °F 93% 29.97 in 10.0 mi NW 15.0 mph 19.6 mph N/A   Light Drizzle
7:24 PM 41.0 °F 33.5 °F 39.2 °F 93% 29.98 in 10.0 mi NW 13.8 mph 24.2 mph N/A   Light Drizzle
7:53 PM 39.2 °F 32.0 °F 39.2 °F 100% 29.97 in 7.0 mi NW 11.5 mph 26.5 mph N/A Rain Light Rain
7:55 PM 39.7 °F 32.7 °F 39.6 °F 99% 29.97 in 7.0 mi NW 11.5 mph - 0.01 in Rain Light Rain
8:05 PM 39.2 °F 33.0 °F 39.2 °F 100% 29.99 in 6.0 mi NW 9.2 mph - N/A Rain Light Rain
8:37 PM 39.2 °F 29.8 °F 39.2 °F 100% 29.99 in 7.0 mi NNW 18.4 mph 25.3 mph N/A Rain Light Rain
8:55 PM 39.6 °F 31.0 °F 39.4 °F 99% 30.00 in 8.0 mi NNW 16.1 mph 20.7 mph 0.01 in   Light Drizzle
9:11 PM 39.2 °F 32.5 °F 39.2 °F 100% 30.01 in 9.0 mi NNW 10.4 mph 20.7 mph N/A Rain Light Rain
9:22 PM 39.2 °F 30.5 °F 39.2 °F 100% 30.02 in 10.0 mi NW 16.1 mph - N/A   Light Drizzle
9:30 PM 39.2 °F 32.5 °F 39.2 °F 100% 30.02 in 10.0 mi NW 10.4 mph 20.7 mph N/A   Light Drizzle
9:36 PM 39.2 °F 32.5 °F 39.2 °F 100% 30.02 in 10.0 mi NW 10.4 mph - N/A   Light Drizzle
9:54 PM 39.2 °F 32.0 °F 39.2 °F 100% 30.01 in 10.0 mi NNW 11.5 mph - N/A   Light Drizzle
9:55 PM 39.2 °F 33.0 °F 39.0 °F 99% 30.01 in 10.0 mi NNW 9.2 mph 17.3 mph 0.00 in   Light Drizzle
9:59 PM 39.2 °F 33.6 °F 39.2 °F 100% 30.01 in 10.0 mi NNW 8.1 mph 17.3 mph N/A   Overcast
10:19 PM 39.2 °F 32.5 °F 39.2 °F 100% 30.01 in 10.0 mi NW 10.4 mph - N/A   Overcast
10:21 PM 39.2 °F 33.6 °F 39.2 °F 100% 30.02 in 10.0 mi NW 8.1 mph - N/A   Overcast
10:32 PM 39.2 °F 33.0 °F 39.2 °F 100% 30.00 in 10.0 mi NNW 9.2 mph - N/A   Overcast
10:55 PM 39.4 °F 32.7 °F 39.2 °F 99% 30.01 in 10.0 mi NW 10.4 mph - 0.00 in   Overcast
11:09 PM 39.2 °F 31.6 °F 39.2 °F 100% 30.00 in 10.0 mi NNW 12.7 mph 18.4 mph N/A   Overcast
11:22 PM 39.2 °F 32.0 °F 39.2 °F 100% 30.01 in 10.0 mi NW 11.5 mph - N/A   Overcast
11:32 PM 39.2 °F 31.2 °F 39.2 °F 100% 30.01 in 10.0 mi NNW 13.8 mph 19.6 mph N/A   Overcast
11:49 PM 39.2 °F 33.6 °F 37.4 °F 93% 30.01 in 10.0 mi NW 8.1 mph - N/A   Overcast
11:55 PM 38.7 °F 31.4 °F 38.1 °F 98% 30.01 in 10.0 mi NW 11.5 mph - 0.00 in   Overcast